Regional Weather Roundup
Issued by NWS Spokane, WA

Home | Current Version | Previous Version | Text Only | Print | Product List | Glossary On
Versions: 1 2 3 4 5 6 7 8 9 10 11 12 13 14 15 16 17 18 19 20 21 22 23 24 25 26 27 28 29 30 31 32 33 34 35 36 37 38 39 40 41 42 43 44 45 46 47 48 49 50
000
NZUS01 KOTX 220910
RWROTX
EASTERN WASHINGTON/NORTHERN IDAHO ROUNDUP
NATIONAL WEATHER SERVICE, SPOKANE WA
200 AM PDT TUE JUL 22 2014

Note: "fair" indicated few or no clouds below 12,000 feet with no
significant weather and/or obstructions to visibility.

...NORTHEAST WASHINGTON AND NORTHERN IDAHO PANHANDLE...

CITY           SKY/WX    TMP DP  RH WIND       PRES   REMARKS
SPOKANE INTL   CLOUDY    66  42  41 SE6       30.02S
SPOKANE DOWNTO CLOUDY    67  49  52 CALM      30.03R
COEUR D ALENE  CLOUDY    63  48  59 MISG      30.04S
DEER PARK      CLOUDY    63  48  58 CALM      30.03S
SANDPOINT      MOCLDY    52  52 100 CALM      30.05S

...SOUTHEAST WASHINGTON AND SOUTHERN IDAHO PANHANDLE...

CITY           SKY/WX    TMP DP  RH WIND       PRES   REMARKS
WALLA WALLA    CLOUDY    70  43  37 E7        29.97S
PULLMAN/MOSCOW CLOUDY    64  43  46 CALM      30.05S
LEWISTON       LGT RAIN  71  47  42 CALM      29.99F
LOWELL           N/A     62  52  69 NW5       30.06R

...COLUMBIA BASIN...

CITY           SKY/WX    TMP DP  RH WIND       PRES   REMARKS
EPHRATA        CLOUDY    67  43  41 N5        29.96R
MOSES LAKE     CLOUDY    68  43  40 CALM      29.96S
TRI CITIES     CLOUDY    76  39  26 S7        29.94R
HERMISTON      CLOUDY    70  41  34 SW5       29.95R
PENDLETON      CLOUDY    67  39  35 CALM      29.98S

...EAST SLOPES CASCADES...

CITY           SKY/WX    TMP DP  RH WIND       PRES   REMARKS
THE DALLES     CLOUDY    71  48  43 NW7       29.97R
YAKIMA         CLOUDY    66  49  54 W6        29.95R
ELLENSBURG     MOCLDY    66  52  60 NW12      29.97S
WENATCHEE      CLOUDY    69  47  45 N5        29.95R
OMAK           MOCLDY    61  40  45 W5        29.97S

...SOUTHERN BRITISH COLUMBIA...

CITY           SKY/WX    TMP DP  RH WIND       PRES   REMARKS
PENTICTON      PTCLDY    64  43  45 VRB5      29.94R
CRANBROOK      MOCLDY    57  45  62 VRB2      30.09R

...WESTERN MONTANA...

CITY           SKY/WX    TMP DP  RH WIND       PRES   REMARKS
MISSOULA       MOCLDY    54  41  61 NW5       30.13R

...NEIGHBORING CITIES...

CITY           SKY/WX    TMP DP  RH WIND       PRES   REMARKS
SEATTLE        CLEAR     58  52  80 CALM      30.03S
CALGARY        CLEAR     55  52  88 S9G17     30.13S



USA.gov is the U.S. government's official web portal to all federal, state and local government web resources and services.